Weather in Eldoret

Kenya     0°30′24″N   35°16′23″E
temp.,
°C
wind,
m/s
gust,
m/s
humid.,
%
clouds,
%
prec.,
mm/h
press.,
hPa
HPBL,
m
24 may, tue
tue2400:00+15e238783 0.5 101555
03:00+14ese228478 0.6 101412
06:00+13ese22835 0.0 101511
09:00+19sse116550 0.0 1015316
12:00+24ne24395 0.0 10132207
15:00+24ne34376 0.0 10112232
18:00+17w468443 1.4 1014157
21:00+16s118372 1.5 101611
25 may, wed
wed2500:00+16s2281100 0.1 101615
03:00+15n118337 0.1 101510
06:00+13ne1181100 0.0 101710
09:00+18nnw1169100 0.0 1018401
12:00+21nw235698 0.6 10151329
15:00+22nnw3456100 2.0 10131141
18:00+17w3586100 1.9 1015138
21:00+15se1188100 3.1 101824
26 may, thu
thu2600:00+14nne118551 0.7 101912
03:00+14n118947 1.1 101811
06:00+12ese119259 0.0 101910
09:00+17nnw117895 0.0 1019461
12:00+21nne235786 0.4 10161391
15:00+22nne355499 2.1 10131776
18:00+18n2380100 2.3 101584
21:00+14ese2290100 4.2 101931
27 may, fri
fri2700:00+13sse2286100 0.0 101912
03:00+13sse1185100 0.4 101811
06:00+12se2284100 0.0 101811
09:00+17nw1174100 0.0 1019286
12:00+20nw226291 0.5 10171178
15:00+20nw446176 2.1 10141025
18:00+16wnw468785 2.1 1015197
21:00+14s1188100 2.8 101813
28 may, sat
sat2800:00+13sse1187100 0.1 101810
03:00+14nne2289100 0.3 101736
06:00+13ese118928 0.0 101710
09:00+17e117471 0.1 1018298
12:00+20nw226047 0.9 10151235
15:00+21wnw335844 2.3 10121366
18:00+16wnw358695 2.6 1014123
21:00+13s229394 3.2 101719